WESTFORD NEEDLES, 629

Orbit data source: Space-Track

WESTFORD NEEDLES, 629 is space debris in LEO originally from a launch on Thu, 09 May 1963 UTC via an ATLAS AGENA B launch vehicle from the Air Force Western Test Range (AFWTR). Debris objects in space refer to the collection of defunct objects orbiting the Earth. Examples of debris include non-operational satellites, rocket bodies, and fragments generated from explosions, collisions, or faulty payload assembly.

Loading next visibility...
Identifier
629, 1963-014G
Orbit
LEO
Country
Flag of USUS
Related business
Manufacturer
MIT-LL
Mission
Spacecraft
Bus & Motor
Unknown
Mass
8 kg wet, 8 kg dry
Launch date (UTC)
1963-05-09 (63 years ago)
Launch vehicle
ATLAS AGENA B
Launch site
Air Force Western Test Range (AFWTR)
Object type
Payload
Rocket body
Debris
Shape & HBR
Unknown shape, 1.1 m
Radar Cross Section
Large (>1 m²)

Expand to show TLE details & history
Last TLE update: 9 hours ago

TLE from 9 hours ago
0 WESTFORD NEEDLES
1   629U 63014G   26036.41176473 -.00000019  00000-0 -10413-1 0  9993
2   629  87.3460 203.8498 0047186 130.0351 230.4656  8.65565113982791
Epoch: 2026-02-05T09:52Z
TLE epoch observation values (Epoch: 2026-02-05T09:52:56.472Z)
Latitude
-0.00011°
Longitude
-79.94988°
Altitude
3,674.304 km
Speed
6.288 km/s
True Right ascension
13h 35m 23s
True Declination
0° 00' 00"
Sunlit
Object was in daylight at epoch
Visualization orbit readout
Latitude
Unknown
Longitude
Unknown
Altitude
Unknown
Speed
Unknown
Apparent Right ascension
Unknown
Apparent Declination
Unknown
Sunlit
N/A
Visualization observer readout
Local Sidereal Time
20:49:49
Azimuth
Unknown
Elevation
Unknown
Doppler factor
Unknown
Orbital elements
Apogee altitude
3,686.978 km
Perigee altitude
3,592.438 km
Semi-major axis
10,017.845 km
Eccentricity
0.00472
Inclination
87.346°
RAAN
203.8498°
Arg. of periapsis
130.0351°
True anomaly
230.05014°
Mean anomaly
230.4656°
Eccentric anomaly
230.25772°
Mean motion
2.16462 °/min
Orbital period
166.31 mins
BSTAR
-0.010413
Loading maneuver chart data...
Computing Atmospheric mass density...
Loading historical data...
Loading historical data...
Loading historical data...
Loading historical data...
Loading historical data...
Loading historical data...
Loading historical data...

Documentation

Showing up to 5 results
|